Sport private pilot acrobatic tailwheel flight training san jose san francisco bay area california flight school
Book Online at PaperlessFBO

AeroDynamic Webcam

For latest news click here

AeroDynamic Aviation Web Cam
The camera is located on top of our hangar, looking approximately SSW, towards the runways. The picture updates every two minutes. If you can see the hills in the distance (Loma Prieta and Mt Umunhum) the visibility is over 10 miles, and if you can see the tops of the hills the ceilings are higher than 3000' (at least over there). But remember that a webcam is no substitute for a proper weather briefing, preferably from a live Flight Service briefer!

 


METAR = KRHV 281449Z 00000KT 1/4SM FG OVC005 04/03 A3005

STATION........ KRHV
OBSERVED....... Fri Nov 28, 09:49 EST
NOW............ Fri Nov 28, 10:26 EST
AGE............ 37 min ago
WIND........... calm
VISIBILITY..... 1/4 mile
CONDITIONS..... fog
CLOUDS......... overcast
TEMP........... 39°F (4°C)
DEWPT.......... 37°F (3°C)
HUMIDITY....... 93%
BAROMETER...... 1018 hPa (30.05 in Hg)

 

Come and fly with us in the beautiful San Francisco Bay Area of California. Our flight school is located at Reid Hillview airport in San Jose (KRHV), at the south end of San Francisco Bay and we offer ground and flight training for sport pilot, private pilot, commercial pilot, instrument rating, CFI (certified flight instructor), tailwheel, acrobatics, and multi engine certificates and ratings.